Hourly Data Report for June 09, 2021

TORONTO CITY
ONTARIO
Current Station Operator: ECCC - MSC

43°40'00.000" N
79°24'00.000" W
112.50 m
6158355
71508
XTO

Download Data

Hourly Data (June 2021)
Hourly Data Report for June 9, 2021
TIME
LST
Temp Definition
°C
Dew Point Definition
°C
Rel Hum Definition
%
Precip. Amount Definition
mm

Wind Dir Definition
10's deg

Wind Spd Definition
km/h
Visibility Definition
km
Stn Press Definition
kPa
Hmdx Definition


Wind Chill Definition


Weather Definition


00:00 20.7 19.4 92 0.0       100.33 28   LegendNANA
01:00 21.2 20.0 93 0.0       100.33 29   LegendNANA
02:00 21.1 20.0 94 0.0       100.33 29   LegendNANA
03:00 20.9 20.0 95 0.0       100.33 28   LegendNANA
04:00 21.6 20.8 96 0.0       100.32 30   LegendNANA
05:00 21.0 20.3 96 0.0       100.34 29   LegendNANA
06:00 22.6 20.5 88 0.0       100.37 31   LegendNANA
07:00 24.4 20.8 80 0.0       100.43 33   LegendNANA
08:00 26.1 20.2 70 0.0       100.45 34   LegendNANA
09:00 27.4 20.5 66 0.0       100.48 35   LegendNANA
10:00 28.6 21.6 66 0.0       100.49 38   LegendNANA
11:00 27.8 20.3 64 0.0       100.56 36   LegendNANA
12:00 26.8 19.9 66 0.0       100.55 34   LegendNANA
13:00 26.2 19.5 67 0.0       100.50 33   LegendNANA
14:00 25.1 18.9 68 0.0       100.47 32   LegendNANA
15:00 27.3 17.8 56 0.0       100.42 33   LegendNANA
16:00 26.6 17.8 58 0.0       100.40 32   LegendNANA
17:00 26.3 17.0 57 0.0       100.38 32   LegendNANA
18:00 26.0 16.2 55 0.0       100.41 31   LegendNANA
19:00 25.7 15.7 54 0.0       100.43 30   LegendNANA
20:00 24.8 15.1 55 0.0       100.45 29   LegendNANA
21:00 24.1 15.1 57 0.0       100.50 28   LegendNANA
22:00 24.4 15.8 59 0.0       100.50 29   LegendNANA
23:00 23.4 15.1 59 0.0       100.50 27   LegendNANA

Notes on Data Quality.

Legend

  • E = Estimated
  • M = Missing
  • NA = Not Available*
  • [empty] = Indicates an unobserved value
Date modified: